TimeCDT,TemperatureF,Dew PointF,Humidity,Sea Level PressureIn,VisibilityMPH,Wind Direction,Wind SpeedMPH,Gust SpeedMPH,PrecipitationIn,Events,Conditions,WindDirDegrees,DateUTC
12:15 AM,59.9,59.9,100,30.07,10.0,SSE,5.8,-,N/A,,Clear,150,2013-03-16 05:15:00
12:35 AM,59.5,59.5,100,30.06,10.0,SSE,5.8,-,N/A,,Clear,150,2013-03-16 05:35:00
12:55 AM,59.7,59.7,100,30.06,10.0,SSE,5.8,-,N/A,,Clear,160,2013-03-16 05:55:00
1:15 AM,59.0,59.0,100,30.06,10.0,SSE,3.5,-,N/A,,Clear,160,2013-03-16 06:15:00
1:35 AM,58.1,58.1,100,30.05,10.0,SSE,4.6,-,N/A,,Clear,160,2013-03-16 06:35:00
1:55 AM,58.3,58.3,100,30.04,10.0,SSE,5.8,-,N/A,,Clear,160,2013-03-16 06:55:00
2:15 AM,59.4,59.4,100,30.03,10.0,SSE,6.9,-,N/A,,Clear,160,2013-03-16 07:15:00
2:35 AM,59.9,59.9,100,30.02,10.0,South,6.9,-,N/A,,Clear,170,2013-03-16 07:35:00
2:55 AM,60.1,60.1,100,30.02,10.0,South,6.9,-,N/A,,Clear,170,2013-03-16 07:55:00
3:15 AM,60.4,60.4,100,30.01,10.0,South,8.1,-,N/A,,Clear,170,2013-03-16 08:15:00
3:35 AM,60.3,60.3,100,30.01,10.0,South,6.9,-,N/A,,Clear,170,2013-03-16 08:35:00
3:55 AM,59.9,59.9,100,30.01,10.0,South,4.6,-,N/A,,Clear,180,2013-03-16 08:55:00
4:15 AM,59.2,59.2,100,30.00,10.0,South,5.8,-,N/A,,Clear,180,2013-03-16 09:15:00
4:35 AM,58.5,58.5,100,29.99,10.0,South,4.6,-,N/A,,Clear,180,2013-03-16 09:35:00
4:55 AM,57.7,57.7,100,29.99,10.0,South,4.6,-,N/A,,Scattered Clouds,180,2013-03-16 09:55:00
5:15 AM,55.4,55.4,100,29.98,10.0,South,5.8,-,N/A,,Scattered Clouds,170,2013-03-16 10:15:00
5:35 AM,57.2,57.2,100,29.98,7.0,South,5.8,-,N/A,,Clear,170,2013-03-16 10:35:00
5:55 AM,57.0,57.0,100,29.98,7.0,SSE,4.6,-,N/A,,Clear,160,2013-03-16 10:55:00
6:15 AM,57.4,57.4,100,29.98,7.0,South,4.6,-,N/A,,Clear,170,2013-03-16 11:15:00
6:35 AM,57.7,57.7,100,29.98,10.0,SSE,4.6,-,N/A,,Clear,160,2013-03-16 11:35:00
6:55 AM,57.4,57.4,100,29.98,10.0,SSE,4.6,-,N/A,,Clear,160,2013-03-16 11:55:00
7:15 AM,57.4,57.4,100,29.97,7.0,SSE,5.8,-,N/A,,Clear,150,2013-03-16 12:15:00
7:35 AM,57.7,57.7,100,29.97,10.0,SSE,4.6,-,N/A,,Clear,150,2013-03-16 12:35:00
7:55 AM,58.1,58.1,100,29.97,7.0,SSE,4.6,-,N/A,,Clear,150,2013-03-16 12:55:00
8:15 AM,58.6,58.6,100,29.97,10.0,SSE,3.5,-,N/A,,Clear,160,2013-03-16 13:15:00
8:35 AM,60.8,60.8,100,29.98,10.0,SSE,4.6,-,N/A,,Clear,160,2013-03-16 13:35:00
8:55 AM,62.8,62.8,100,29.98,10.0,South,3.5,-,N/A,,Clear,170,2013-03-16 13:55:00
9:15 AM,65.7,65.7,100,29.98,10.0,SSE,5.8,-,N/A,,Clear,160,2013-03-16 14:15:00
9:35 AM,68.7,68.7,100,29.99,10.0,South,10.4,-,N/A,,Clear,180,2013-03-16 14:35:00
9:55 AM,71.4,66.7,85,29.99,10.0,South,16.1,21.9,N/A,,Clear,170,2013-03-16 14:55:00
10:15 AM,73.0,63.5,72,29.99,10.0,South,18.4,23.0,N/A,,Scattered Clouds,170,2013-03-16 15:15:00
10:35 AM,74.5,62.2,66,30.00,10.0,South,18.4,25.3,N/A,,Scattered Clouds,190,2013-03-16 15:35:00
10:55 AM,75.7,61.5,61,29.99,10.0,South,21.9,26.5,N/A,,Scattered Clouds,180,2013-03-16 15:55:00
11:15 AM,76.1,61.9,61,29.99,10.0,South,19.6,27.6,N/A,,Scattered Clouds,190,2013-03-16 16:15:00
11:35 AM,76.3,61.3,60,29.99,10.0,South,19.6,26.5,N/A,,Scattered Clouds,180,2013-03-16 16:35:00
11:55 AM,76.5,61.0,59,29.99,10.0,South,20.7,26.5,N/A,,Scattered Clouds,190,2013-03-16 16:55:00
12:15 PM,76.5,61.3,59,29.99,10.0,South,20.7,26.5,N/A,,Mostly Cloudy,190,2013-03-16 17:15:00
12:35 PM,77.5,61.7,58,29.98,10.0,South,18.4,26.5,N/A,,Mostly Cloudy,170,2013-03-16 17:35:00
12:55 PM,78.3,61.5,56,29.98,10.0,South,19.6,24.2,N/A,,Mostly Cloudy,180,2013-03-16 17:55:00
1:15 PM,78.8,61.9,56,29.97,10.0,South,23.0,27.6,N/A,,Scattered Clouds,170,2013-03-16 18:15:00
1:35 PM,79.2,61.2,54,29.97,10.0,South,17.3,26.5,N/A,,Scattered Clouds,180,2013-03-16 18:35:00
1:55 PM,78.8,61.3,55,29.95,10.0,South,18.4,26.5,N/A,,Mostly Cloudy,170,2013-03-16 18:55:00
2:15 PM,78.4,61.2,55,29.94,10.0,South,20.7,26.5,N/A,,Mostly Cloudy,180,2013-03-16 19:15:00
2:35 PM,78.6,61.7,56,29.93,10.0,South,18.4,27.6,N/A,,Scattered Clouds,180,2013-03-16 19:35:00
2:55 PM,78.4,61.9,57,29.92,10.0,SSE,19.6,26.5,N/A,,Mostly Cloudy,160,2013-03-16 19:55:00
3:15 PM,78.4,61.5,56,29.90,10.0,SSE,15.0,24.2,N/A,,Mostly Cloudy,160,2013-03-16 20:15:00
3:35 PM,78.6,61.0,55,29.90,10.0,South,18.4,25.3,N/A,,Mostly Cloudy,170,2013-03-16 20:35:00
3:55 PM,77.7,61.7,58,29.89,10.0,SSE,18.4,23.0,N/A,,Overcast,160,2013-03-16 20:55:00
4:15 PM,77.0,62.8,61,29.88,10.0,SSE,18.4,24.2,N/A,,Overcast,160,2013-03-16 21:15:00
4:35 PM,76.3,62.6,62,29.88,10.0,SSE,16.1,-,N/A,,Overcast,160,2013-03-16 21:35:00
4:55 PM,75.6,63.0,65,29.88,10.0,South,18.4,26.5,N/A,,Overcast,170,2013-03-16 21:55:00
5:15 PM,74.3,63.1,68,29.88,10.0,SSE,17.3,24.2,N/A,,Mostly Cloudy,160,2013-03-16 22:15:00
5:35 PM,73.6,63.3,70,29.88,10.0,SSE,17.3,23.0,N/A,,Overcast,160,2013-03-16 22:35:00
5:55 PM,72.7,63.3,72,29.88,10.0,SSE,19.6,24.2,N/A,,Overcast,160,2013-03-16 22:55:00
6:15 PM,72.3,63.1,73,29.88,10.0,SSE,13.8,-,N/A,,Mostly Cloudy,160,2013-03-16 23:15:00
6:35 PM,71.2,63.0,75,29.88,10.0,SSE,17.3,21.9,N/A,,Mostly Cloudy,150,2013-03-16 23:35:00
6:55 PM,70.7,63.0,76,29.88,10.0,SSE,16.1,21.9,N/A,,Scattered Clouds,150,2013-03-16 23:55:00
7:15 PM,70.3,63.0,77,29.88,10.0,SSE,16.1,-,N/A,,Clear,150,2013-03-17 00:15:00
7:35 PM,69.4,62.6,79,29.88,10.0,SE,10.4,15.0,N/A,,Clear,140,2013-03-17 00:35:00
7:55 PM,68.7,62.4,80,29.88,10.0,SE,11.5,16.1,N/A,,Clear,140,2013-03-17 00:55:00
8:15 PM,68.0,62.6,83,29.87,10.0,SE,11.5,16.1,N/A,,Clear,140,2013-03-17 01:15:00
8:35 PM,67.6,62.6,84,29.87,10.0,SSE,9.2,17.3,N/A,,Clear,150,2013-03-17 01:35:00
8:55 PM,67.1,62.6,85,29.87,10.0,SE,11.5,-,N/A,,Clear,140,2013-03-17 01:55:00
9:15 PM,67.1,62.6,85,29.88,10.0,SSE,11.5,-,N/A,,Clear,150,2013-03-17 02:15:00
9:35 PM,66.9,62.6,86,29.88,10.0,SSE,9.2,-,N/A,,Clear,150,2013-03-17 02:35:00
9:55 PM,66.6,62.4,86,29.89,10.0,SSE,9.2,-,N/A,,Clear,150,2013-03-17 02:55:00
10:15 PM,66.6,62.8,88,29.90,10.0,SSE,8.1,-,N/A,,Clear,150,2013-03-17 03:15:00
10:35 PM,66.4,63.0,89,29.90,10.0,SSE,9.2,-,N/A,,Clear,150,2013-03-17 03:35:00
10:55 PM,66.2,63.5,91,29.89,10.0,SSE,9.2,-,N/A,,Clear,150,2013-03-17 03:55:00
11:15 PM,66.2,65.7,98,29.89,10.0,SSE,8.1,-,N/A,,Clear,150,2013-03-17 04:15:00
11:35 PM,66.2,66.2,100,29.89,10.0,SE,6.9,-,N/A,,Clear,140,2013-03-17 04:35:00
11:55 PM,65.8,65.8,100,29.88,10.0,SSE,6.9,-,N/A,,Clear,150,2013-03-17 04:55:00